Miscellaneous Local Product
Issued by NWS Hastings, NE

Home | Current Version | Previous Version | Graphics & Text | Print | Product List | Glossary On
Versions: 1 2 3 4 5 6 7 8 9 10 11 12 13 14 15 16 17 18 19 20 21 22 23 24 25 26 27 28 29 30 31 32 33 34 35 36 37 38 39 40 41 42 43 44 45 46 47 48 49 50
128
AXUS43 KGID 151602
MISGRI

GID CWA HOURLY WEATHER ROUNDUP
NATIONAL WEATHER SERVICE HASTINGS NE
1000 AM CST SUN JAN 15 2017

NOTE: "FAIR" INDICATES FEW OR NO CLOUDS BELOW 12,000 FEET WITH NO
SIGNIFICANT WEATHER AND/OR OBSTRUCTIONS TO VISIBILITY.

...SOUTH CENTRAL NEBRASKA...

CITY           SKY/WX    TMP DP  RH WIND       PRES   REMARKS
GRAND ISLAND   CLOUDY    29  24  82 SE7       30.27F WCI  22
HASTINGS       MIX PCPN  27  25  92 SE5       30.28S FOG     WCI  22
KEARNEY        CLOUDY    28  23  80 CALM      30.25S
ORD            CLOUDY    26  20  77 CALM      30.24S
YORK           CLOUDY    30  25  80 S7        30.30S WCI  23
AURORA         MIX PCPN  29  24  80 S6        30.29R WCI  23
LEXINGTON      CLOUDY    30  23  74 S6        30.24R WCI  24
HOLDREGE       CLOUDY    27  25  92 SE5       30.25R FOG     WCI  22
HEBRON         MIX PCPN  29  28  95 E5        30.30R WCI  24

...NEBRASKA PANHANDLE...

CITY           SKY/WX    TMP DP  RH WIND       PRES   REMARKS
CHADRON        CLOUDY    12   9  87 SW8       30.16S WCI   0
ALLIANCE       CLOUDY    19  16  88 CALM      30.12F
SCOTTSBLUFF    CLOUDY    22  18  85 CALM      30.14S
SIDNEY         CLOUDY    27  24  89 N5        30.12R WCI  22

...WESTERN AND NORTH CENTRAL NEBRASKA...

CITY           SKY/WX    TMP DP  RH WIND       PRES   REMARKS
VALENTINE      SUNNY     22  18  85 SW3       30.17F
AINSWORTH      CLOUDY    27  24  89 S6        30.18S WCI  20
ONEILL         CLOUDY    26  23  88 S3        30.24S
BROKEN BOW     CLOUDY    27  22  81 CALM      30.21S
IMPERIAL       CLOUDY    27  21  78 CALM      30.16F
NORTH PLATTE   CLOUDY    27  20  75 CALM      30.20S
MCCOOK         CLOUDY    30  26  85 SE5       30.21F WCI  25

...EASTERN NEBRASKA...

CITY           SKY/WX    TMP DP  RH WIND       PRES   REMARKS
NORFOLK        CLOUDY    28  18  66 S7        30.28S WCI  21
SO SIOUX CITY  SUNNY     24  19  81 SE6       30.33F WCI  17
TEKAMAH        CLOUDY    28  20  71 S6        30.34F WCI  22
COLUMBUS       CLOUDY    30  19  64 SE3       30.31S
ALBION         CLOUDY    25  20  81 SE3       30.27F
OMAHA EPPLEY   CLOUDY    32  15  49 S5        30.35S WCI  27
OFFUTT AFB     PTSUNNY   32  19  58 S3        30.35R
MILLARD        CLOUDY    34  18  52 SE5       30.35R WCI  30
LINCOLN        LGT RAIN  31  23  72 S8        30.35S WCI  23
NEBRASKA CITY  MIX PCPN  30  24  79 S3        30.33F
BEATRICE       LGT SNOW  30  29  95 E7        30.32S WCI  23
FALLS CITY     CLOUDY    29  27  92 E5        30.35S WCI  24

...NORTHERN KANSAS...

CITY           SKY/WX    TMP DP  RH WIND       PRES   REMARKS
GOODLAND       FRZ RAIN  30  29  96 SE5       30.14R FOG     WCI  25
HILL CITY      FRZ RAIN  30  29  96 NE8       30.23F FOG     WCI  22
NORTON         MIX PCPN  28  25  86 CALM      30.23F
PHILLIPSBURG   LGT RAIN  30  30 100 E5        30.27S WCI  25
SMITH CENTER   MIX PCPN  27  27 100 E5        30.29R WCI  21
HAYS           LGT SNOW  29  27  92 E8        30.24F FOG     WCI  21
RUSSELL        FRZ RAIN  29  27  92 E7        30.25R FOG     WCI  22
CONCORDIA      CLOUDY    29  28  96 E7        30.28S WCI  22
SALINA         FRZ RAIN  30  27  88 NE7       30.30R FOG     WCI  23
TOPEKA         CLOUDY    32  28  85 NE7       30.33F FOG     WCI  26



USA.gov is the U.S. government's official web portal to all federal, state and local government web resources and services.